Regional Weather Roundup
Issued by NWS

Home | Current Version | Previous Version | Text Only | Print | Product List | Glossary On
Versions: 1 2 3 4 5 6 7 8 9 10 11 12 13 14 15 16 17 18 19 20 21 22 23 24 25 26 27 28 29 30 31 32 33 34 35 36 37 38 39 40 41 42 43 44 45 46 47 48 49 50
000
ASUS43 KMPX 280710
RWRMN
WEATHER ROUNDUP FOR MINNESOTA
NATIONAL WEATHER SERVICE TWIN CITIES/CHANHASSEN MN
200 AM CDT FRI APR 28 2017


NOTE: "FAIR" INDICATES FEW OR NO CLOUDS BELOW 12,000 FEET WITH NO
SIGNIFICANT WEATHER AND/OR OBSTRUCTIONS TO VISIBILITY. N/A MEANS
CURRENT SKY AND/OR WEATHER CONDITIONS ARE NOT AVAILABLE.

MNZ060>063-068>070-280800-
   Twin Cities Metro

CITY           SKY/WX    TMP DP  RH WIND       PRES   REMARKS
TWIN CITIES    CLOUDY    35  26  69 W7        29.80S WCI  29
ST PAUL        CLOUDY    36  27  69 W9        29.81S
LAKEVILLE      CLOUDY    32  28  86 SW5       29.81S WCI  27
EDEN PRAIRIE   CLOUDY    35  27  72 W6        29.80R WCI  30
SOUTH ST PAUL  CLOUDY    34  28  77 W5        29.80S WCI  30
LAKE ELMO      CLOUDY    34  28  80 W7        29.80S WCI  28
$$
MNZ001>005-007-008-013>017-022>024-027-028-280800-
   Northwest Minnesota

CITY           SKY/WX    TMP DP  RH WIND       PRES   REMARKS
BEMIDJI        FLURRIES  28  23  82 W10       29.75R WCI  18
HALLOCK        CLOUDY    36  28  75 N9        29.84S
ROSEAU         CLOUDY    30  25  80 N9        29.79S WCI  22
WARROAD        PTCLDY    28  25  86 NW9       29.78R WCI  20
THIEF RVR FALL CLOUDY    30  26  85 NW9       29.81S WCI  22
CROOKSTON      PTCLDY    32  28  86 NW10      29.84S WCI  24
FOSSTON        CLOUDY    27  25  93 NW9       29.79S WCI  17
DETROIT LAKES  MOCLDY    32  28  86 NW7       29.80R WCI  26
MOORHEAD       CLEAR     30  27  86 NW12      29.84R WCI  21
PARK RAPIDS    PTCLDY    28  19  69 NW10      29.76R WCI  19
MAHNOMEN       FAIR      25  22  87 NW3       29.80R
$$
MNZ006-009>011-018-025>026-280800-
   North Central Minnesota

CITY           SKY/WX    TMP DP  RH WIND       PRES   REMARKS
BAUDETTE       CLOUDY    29  22  75 N15G24    29.72R WCI  18
FLAG ISLAND    FLURRIES  30  27  86 NW20      29.75R WCI  18
INTL FALLS     CLOUDY    27  22  81 NW8       29.67S WCI  19
WASKISH        FLURRIES  28  27  93 NW9       29.73S WCI  20
BIG FORK       FLURRIES  28  23  80 NW5       29.69S WCI  23
LONGVILLE      CLOUDY    28  25  86 NW8       29.73R WCI  20
GRAND RAPIDS   FLURRIES  27  23  85 NW14      29.72R WCI  16
CRANE LAKE     CLOUDY    25  21  86 W5        29.66F WCI  19
ORR            CLOUDY    27  21  80 W9        29.64S WCI  17
COOK           CLOUDY    27  23  86 W8        29.67S WCI  18
WALKER         CLOUDY    27  23  84 W8        29.74S WCI  19
$$
MNZ012-019>021-037-280800-
   Northeast Minnesota

CITY           SKY/WX    TMP DP  RH WIND       PRES   REMARKS
DULUTH         CLOUDY    28  23  81 W13       29.67R WCI  17
ELY            CLOUDY    25  19  80 W5        29.63S WCI  19
HIBBING        CLOUDY    26  21  81 W7        29.68R WCI  18
EVELETH        CLOUDY    28  22  81 W7G16     29.67S WCI  20
DULUTH HARBOR  CLOUDY    32  27  80 SW9       29.72S WCI  24
TWO HARBORS    CLOUDY    30  25  80 W8        29.65S WCI  23
SILVER BAY     CLOUDY    28  25  86 W3        29.64R
GRAND MARAIS     N/A     28  24  85 W7        29.63S WCI  21
G MARAIS ARPRT CLOUDY    21  18  86 CALM      29.56S
$$
MNZ029>031-032-039>041-046>048-054>057-064-280800-
   West Central Minnesota

CITY           SKY/WX    TMP DP  RH WIND       PRES   REMARKS
FERGUS FALLS   CLEAR     34  28  80 NW9       29.82R WCI  26
WHEATON        CLEAR     34  28  80 NW8       29.85S WCI  27
MORRIS         CLEAR     34  30  86 NW9       29.80S WCI  26
ALEXANDRIA     CLOUDY    35  28  75 W9        29.79S WCI  28
ELBOW LAKE     FAIR      35  30  82 NW10      29.81S WCI  27
WADENA         CLOUDY    30  27  86 NW8       29.78R WCI  23
GLENWOOD       MOCLDY    34  28  80 W7        29.79S WCI  28
APPLETON       CLEAR     32  28  86 W5        29.83R WCI  27
BENSON         CLEAR     34  27  75 W5        29.83R WCI  30
ORTONVILLE     PTCLDY    34  28  80 W6        29.83R WCI  29
MADISON        CLEAR     34  30  86 W3        29.84R
WILLMAR        CLOUDY    36  32  87 W7        29.82S
$$
MNZ033>034-036-042>043-049>051-058-059-280800-
   Central Minnesota

CITY           SKY/WX    TMP DP  RH WIND       PRES   REMARKS
ST CLOUD       CLOUDY    34  28  79 W8        29.79R WCI  27
SAUK CENTRE    CLOUDY    33  29  86 NW5       29.79S WCI  28
PAYNESVILLE    CLOUDY    34  30  85 W10       29.80S WCI  26
AITKIN         CLOUDY    32  25  74 W3        29.72S
PINE RIVER     CLOUDY    28  23  80 NW9G17    29.78R WCI  20
BRAINERD       CLOUDY    31  24  75 W18G25    29.75S WCI  19
STAPLES        CLOUDY    28  25  86 NW12      29.77R WCI  18
LONG PRAIRIE   CLOUDY    32  28  86 W5        29.79R WCI  27
LITTLE FALLS   CLOUDY    32  27  80 W8        29.79R WCI  25
LITCHFIELD     CLOUDY    36  30  80 W3        29.81S
BUFFALO        CLOUDY    35  28  76 W10G16    29.81S WCI  27
MAPLE LAKE     CLOUDY    36  30  80 W3        29.81R
HUTCHINSON     CLOUDY    35  31  86 SW6       29.82S WCI  30
$$
MNZ037-044-045-052-053-280800-
   East Central Minnesota

CITY           SKY/WX    TMP DP  RH WIND       PRES   REMARKS
PRINCETON      CLOUDY    36  27  69 W8        29.78S
MORA           CLOUDY    32  27  80 W8        29.78R WCI  25
CAMBRIDGE      CLOUDY    34  25  69 W8        29.76S WCI  27
RUSH CITY      CLOUDY    32  27  80 W7        29.77S WCI  26
MOOSE LAKE     CLOUDY    30  27  86 W6        29.71S WCI  24
HINCKLEY       CLOUDY    32  28  86 W7        29.75S WCI  26
CLOQUET        CLOUDY    28  23  80 W10       29.69S WCI  19
MCGREGOR       CLOUDY    30  27  86 NW6       29.73S WCI  24
$$
MNZ071>073-080-081-089-090-097-098-280800-
   Southwest Minnesota

CITY           SKY/WX    TMP DP  RH WIND       PRES   REMARKS
MONTEVIDEO     CLOUDY    36  30  80 W6        29.83R
GRANITE FALLS  CLOUDY    37  32  83 S9        29.85R
CANBY          CLEAR     35  30  82 SW10      29.87R WCI  27
MARSHALL       CLEAR     31  28  89 SW9       29.85R WCI  23
REDWOOD FALLS  CLOUDY    36  28  73 SW12      29.83R
OLIVIA         CLOUDY    34  32  93 SW7       29.82R WCI  28
PIPESTONE      CLEAR     30  25  80 CALM      29.83S
WINDOM         CLEAR     27  27 100 CALM      29.85R
WORTHINGTON    CLEAR     27  26  96 S6        29.85S WCI  20
JACKSON        CLEAR     28  27  93 S5        29.86S WCI  23
TRACY          CLEAR     32  29  90 SW8       29.85R WCI  25
SLAYTON        CLEAR     28  27  94 CALM      29.84F
$$
MNZ065>067-074>077-082>085-091>093-280800-
   South Central Minnesota

CITY           SKY/WX    TMP DP  RH WIND       PRES   REMARKS
MANKATO        CLOUDY    34  28  79 SW8       29.84S WCI  27
NEW ULM        CLOUDY    34  28  80 SW8       29.84R WCI  27
ST JAMES       CLEAR     30  28  93 SW5       29.86S WCI  25
FAIRMONT       CLEAR     30  26  85 SW7       29.87R WCI  23
GLENCOE        CLOUDY    35  32  88 SW6       29.81S WCI  30
FARIBAULT      CLOUDY    34  28  80 S6        29.83S WCI  29
OWATONNA       PTCLDY    32  27  80 SW7       29.83F WCI  26
WASECA         MOCLDY    32  30  93 SW5       29.86S WCI  27
ALBERT LEA     CLEAR     30  27  86 CALM      29.85S
$$
MNZ078>079-086>088-094>096-280800-
   Southeast Minnesota

CITY           SKY/WX    TMP DP  RH WIND       PRES   REMARKS
ROCHESTER      CLEAR     31  27  85 W9        29.82S WCI  23
RED WING       CLEAR     34  25  69 NW3       29.81R
STANTON        PTCLDY    34  28  79 SW8       29.81R WCI  27
DODGE CENTER   CLEAR     30  27  86 W8        29.82S WCI  23
WINONA         CLOUDY    36  28  75 W10       29.84S
AUSTIN         CLEAR     30  27  86 W3        29.84S
PRESTON        MOCLDY    32  25  77 W12       29.84S WCI  23
$$
ABBREVIATIONS USED IN REMARKS
   TC - TEMPERATURES IN CELSIUS
  WCI - WIND CHILL INDEX
   HX - HEAT INDEX
  VSB - VISIBILITY
$$




USA.gov is the U.S. government's official web portal to all federal, state and local government web resources and services.